Tracking 28790 objects as of 19-Apr-2024
HD Live streaming from Space Station
objects crossing your sky now

CZ-6A DEB

Track CZ-6A DEB now!
10-day predictions


NORAD ID: 56673
Int'l Code: 2022-151AGZ
Perigee: 781.1 km
Apogee: 842.6 km
Inclination: 98.8 °
Period: 101.0 minutes
Semi major axis: 7182 km
RCS: Unknown
Launch date: November 11, 2022
Source: People's Republic of China (PRC)
Launch site: Taiyaun Space Center, China (TSC)

Note: This is SATELLITE DEBRIS
Your satellite tracking list
Your tracking list is empty




NASA's NSSDC Master Catalog

Two Line Element Set (TLE):
1 56673U 22151AGZ 24110.00737334  .00010365  00000-0  43040-2 0  9991
2 56673  98.7909 124.9371 0042864 105.5707 255.0210 14.26127740 56377
Source of the keplerian elements: AFSPC